CW5914 Weather Reports


time (UTC)temp
C
wind
direction
speed
KPH
gust
KPH
rain 1hr
cm
rain 24hr
cm
rain mn
cm
humidity
%
barometer
mb
20260502161807 11 9 4.8 8.0 0.00 0.00 0.00 60 1022.4
20260502161303 12 8 6.4 8.0 0.00 0.00 0.00 59 1022.5
20260502160801 11 346 11.3 12.9 0.00 0.00 0.00 59 1022.4
20260502160300 11 196 4.8 8.0 0.00 0.00 0.00 60 1022.5
20260502152229 9 340 4.8 4.8 0.00 0.00 0.00 67 1022.5
20260502151727 8 217 1.6 3.2 0.00 0.00 0.00 66 1022.5
20260502151224 8 300 6.4 9.7 0.00 0.00 0.00 67 1022.6
20260502150721 8 225 1.6 1.6 0.00 0.00 0.00 66 1022.5
20260502150218 8 283 6.4 8.0 0.00 0.00 0.00 66 1022.5
20260502130606 5 105 6.4 9.7 0.00 0.00 0.00 68 1022.4
20260502130104 5 110 6.4 8.0 0.00 0.00 0.00 69 1022.2
20260502123549 5 3 4.8 4.8 0.00 0.00 0.00 73 1022.0
20260502123046 5 152 1.6 3.2 0.00 0.00 0.00 70 1022.2
20260502122542 5 109 4.8 4.8 0.00 0.00 0.00 66 1022.1
20260502122040 4 122 1.6 1.6 0.00 0.00 0.00 74 1022.2
20260502121537 4 213 0.0 0.0 0.00 0.00 0.00 76 1022.2
20260502121035 5 176 4.8 4.8 0.00 0.00 0.00 72 1022.0
20260502120531 6 56 11.3 16.1 0.00 0.00 0.00 63 1022.0
20260502115526 5 337 4.8 4.8 0.00 0.00 0.00 73 1022.0
20260502115021 6 166 3.2 3.2 0.00 0.00 0.00 70 1022.1
20260502114518 7 270 4.8 8.0 0.00 0.00 0.00 59 1021.8
20260502114015 7 52 12.9 20.9 0.00 0.00 0.00 58 1022.3
20260502113512 6 41 6.4 11.3 0.00 0.00 0.00 63 1021.8
20260502113011 6 22 4.8 4.8 0.00 0.00 0.00 72 1022.1
20260502112508 5 33 6.4 8.0 0.00 0.00 0.00 73 1022.0
20260502112006 5 51 8.0 9.7 0.00 0.00 0.00 76 1022.0
20260502111503 5 30 4.8 4.8 0.00 0.00 0.00 76 1022.0
20260502111000 5 250 3.2 3.2 0.00 0.00 0.00 76 1022.0
20260502110458 5 354 6.4 8.0 0.00 0.00 0.00 73 1022.0
20260502105955 7 12 4.8 4.8 0.00 0.00 0.00 66 1022.1
20260502105453 7 40 4.8 8.0 0.00 0.00 0.00 55 1022.0
20260502104950 8 90 9.7 14.5 0.00 0.00 0.00 54 1021.8
20260502104447 8 86 17.7 22.5 0.00 0.00 0.00 53 1022.0
20260502103944 7 74 24.1 27.4 0.00 0.00 0.00 54 1021.8
20260502103442 7 185 1.6 3.2 0.00 0.00 0.00 61 1021.7
20260502102938 5 209 8.0 9.7 0.00 0.00 0.00 70 1022.0
20260502102436 5 224 3.2 3.2 0.00 0.00 0.00 72 1022.0
20260502101932 5 211 0.0 1.6 0.00 0.00 0.00 73 1022.1
20260502101431 5 205 1.6 3.2 0.00 0.00 0.00 73 1022.0
20260502100928 5 192 4.8 4.8 0.00 0.00 0.00 71 1021.8
20260502100428 7 178 8.0 8.0 0.00 0.00 0.00 65 1022.0
20260502091402 6 216 0.0 0.0 0.00 0.00 0.00 67 1021.8
20260502090859 6 191 3.2 3.2 0.00 0.00 0.00 66 1022.0
20260502090355 7 198 3.2 3.2 0.00 0.00 0.00 63 1021.6
20260502071250 10 98 11.3 14.5 0.00 0.00 0.00 49 1022.0
20260502070749 10 87 11.3 16.1 0.00 0.00 0.00 49 1022.1
20260502070246 8 189 4.8 4.8 0.00 0.00 0.00 56 1022.0
20260502065745 10 231 0.0 0.0 0.00 0.00 0.00 55 1022.1
20260502065242 10 304 4.8 4.8 0.00 0.00 0.00 50 1022.0
20260502064740 10 95 6.4 9.7 0.00 0.00 0.00 49 1021.8
20260502064238 10 218 4.8 4.8 0.00 0.00 0.00 50 1021.7
20260502063735 10 30 6.4 8.0 0.00 0.00 0.00 56 1021.7
20260502063233 10 292 4.8 4.8 0.00 0.00 0.00 53 1021.7
20260502062730 10 8 1.6 3.2 0.00 0.00 0.00 51 1021.8
20260502062227 10 30 3.2 3.2 0.00 0.00 0.00 50 1021.8
20260502061726 10 273 4.8 4.8 0.00 0.00 0.00 51 1021.6
20260502061223 10 275 1.6 1.6 0.00 0.00 0.00 54 1021.5
20260502060718 10 275 1.6 3.2 0.00 0.00 0.00 51 1021.4
20260502060214 11 260 0.0 1.6 0.00 0.00 0.00 49 1021.4
20260502055712 10 152 1.6 3.2 0.00 0.00 0.00 51 1021.4
20260502055210 10 210 1.6 1.6 0.00 0.00 0.00 53 1021.5
20260502054709 10 217 4.8 4.8 0.00 0.00 0.00 57 1021.4
20260502054206 12 210 4.8 4.8 0.00 0.00 0.00 48 1021.4
20260502053703 11 96 11.3 14.5 0.00 0.00 0.00 45 1021.0
20260502053200 10 94 6.4 8.0 0.00 0.00 0.00 49 1021.3
20260502052658 10 185 1.6 1.6 0.00 0.00 0.00 57 1021.3
20260502052157 10 207 0.0 1.6 0.00 0.00 0.00 59 1021.4
20260502051654 10 202 1.6 1.6 0.00 0.00 0.00 58 1021.3
20260502051152 10 191 3.2 3.2 0.00 0.00 0.00 57 1021.3
20260502050648 10 200 1.6 3.2 0.00 0.00 0.00 58 1021.2
20260502050145 10 206 6.4 8.0 0.00 0.00 0.00 57 1021.3
20260502045641 11 202 3.2 3.2 0.00 0.00 0.00 54 1021.2
20260502045139 11 120 3.2 3.2 0.00 0.00 0.00 47 1021.2
20260502044635 11 152 1.6 3.2 0.00 0.00 0.00 47 1021.2
20260502044132 11 207 0.0 1.6 0.00 0.00 0.00 50 1021.3
20260502043630 11 194 1.6 1.6 0.00 0.00 0.00 53 1021.0
20260502043126 11 195 1.6 3.2 0.00 0.00 0.00 52 1021.2
20260502042620 11 220 3.2 4.8 0.00 0.00 0.00 52 1021.2
20260502042118 11 207 1.6 3.2 0.00 0.00 0.00 52 1021.3
20260502041615 12 216 1.6 1.6 0.00 0.00 0.00 51 1021.3
20260502041112 12 219 0.0 0.0 0.00 0.00 0.00 50 1021.2
20260502040609 12 231 0.0 0.0 0.00 0.00 0.00 50 1021.0
20260502040106 12 226 0.0 1.6 0.00 0.00 0.00 48 1020.9
20260502035602 12 205 1.6 3.2 0.00 0.00 0.00 47 1020.8
20260502035059 13 124 4.8 4.8 0.00 0.00 0.00 45 1020.8
20260502034557 13 80 8.0 9.7 0.00 0.00 0.00 45 1020.7
20260502034055 13 179 0.0 0.0 0.00 0.00 0.00 46 1020.8
20260502033553 13 204 0.0 0.0 0.00 0.00 0.00 48 1020.7
20260502033050 13 198 1.6 1.6 0.00 0.00 0.00 46 1020.8
20260502032546 13 184 3.2 3.2 0.00 0.00 0.00 46 1020.6
20260502032043 13 212 0.0 1.6 0.00 0.00 0.00 47 1020.6
20260502031541 13 216 0.0 0.0 0.00 0.00 0.00 47 1020.6
20260502031038 13 215 0.0 0.0 0.00 0.00 0.00 45 1020.5
20260502030537 13 216 0.0 0.0 0.00 0.00 0.00 47 1020.4
20260502030035 13 213 0.0 0.0 0.00 0.00 0.00 47 1020.2
20260502025532 14 213 0.0 0.0 0.00 0.00 0.00 47 1020.4
20260502025030 15 218 1.6 1.6 0.00 0.00 0.00 47 1020.1
20260502024527 15 224 4.8 4.8 0.00 0.00 0.00 40 1020.0
20260502024025 16 220 0.0 0.0 0.00 0.00 0.00 37 1020.0
20260502023523 16 227 0.0 0.0 0.00 0.00 0.00 33 1020.1
20260502023020 16 230 0.0 0.0 0.00 0.00 0.00 32 1020.0
20260502022516 16 230 0.0 0.0 0.00 0.00 0.00 33 1019.8
20260502022014 17 222 0.0 1.6 0.00 0.00 0.00 32 1020.0
20260502021511 17 223 0.0 1.6 0.00 0.00 0.00 32 1019.9
20260502021008 17 269 1.6 1.6 0.00 0.00 0.00 30 1019.9
20260502020506 18 242 0.0 1.6 0.00 0.00 0.00 30 1019.9
20260502020002 18 291 3.2 4.8 0.00 0.00 0.00 30 1019.9
20260502015500 18 279 1.6 1.6 0.00 0.00 0.00 31 1019.7
20260502014956 18 162 1.6 1.6 0.00 0.00 0.00 30 1019.9
20260502014453 18 284 3.2 3.2 0.00 0.00 0.00 31 1020.0
20260502013950 18 257 1.6 1.6 0.00 0.00 0.00 31 1019.7
20260502013445 18 254 0.0 1.6 0.00 0.00 0.00 31 1019.7
20260502012942 18 269 3.2 3.2 0.00 0.00 0.00 31 1019.8
20260502012440 18 268 1.6 3.2 0.00 0.00 0.00 30 1019.9
20260502011937 18 235 1.6 3.2 0.00 0.00 0.00 30 1019.8
20260502011433 18 323 3.2 3.2 0.00 0.00 0.00 30 1019.8
20260502010930 18 236 6.4 8.0 0.00 0.00 0.00 30 1019.7
20260502010426 18 253 1.6 3.2 0.00 0.00 0.00 30 1019.6
20260502005923 18 223 3.2 3.2 0.00 0.00 0.00 31 1019.7
20260502005421 19 253 4.8 4.8 0.00 0.00 0.00 30 1019.7
20260502004919 18 208 1.6 3.2 0.00 0.00 0.00 30 1019.4
20260502004414 19 283 4.8 4.8 0.00 0.00 0.00 30 1019.9
20260502003912 18 250 1.6 1.6 0.00 0.00 0.00 30 1019.7
20260502003410 18 250 4.8 4.8 0.00 0.00 0.00 30 1019.8
20260502002906 19 255 4.8 4.8 0.00 0.00 0.00 30 1019.9
20260502002404 18 296 4.8 4.8 0.00 0.00 0.00 32 1019.9
20260502001900 18 257 1.6 3.2 0.00 0.00 0.00 32 1020.0
20260502001358 18 286 3.2 3.2 0.00 0.00 0.00 32 1020.1
20260502000855 18 271 6.4 9.7 0.00 0.00 0.00 32 1019.9
20260502000354 18 337 8.0 9.7 0.00 0.00 0.00 32 1020.0
20260501235849 18 325 9.7 11.3 0.00 0.00 0.00 32 1019.8
20260501235345 18 300 6.4 9.7 0.00 0.00 0.00 33 1020.0
20260501234840 20 22 8.0 9.7 0.00 0.00 0.00 32 1020.1
20260501234337 18 242 3.2 3.2 0.00 0.00 0.00 33 1020.0
20260501233836 19 328 9.7 12.9 0.00 0.00 0.00 33 1020.1
20260501233333 19 239 3.2 3.2 0.00 0.00 0.00 33 1020.0
20260501232828 18 311 4.8 8.0 0.00 0.00 0.00 33 1020.0
20260501232326 18 333 9.7 11.3 0.00 0.00 0.00 32 1020.2
20260501231823 19 234 0.0 1.6 0.00 0.00 0.00 31 1020.1
20260501231321 19 335 6.4 9.7 0.00 0.00 0.00 32 1019.9
20260501230819 18 279 4.8 4.8 0.00 0.00 0.00 32 1020.2
20260501230318 18 246 1.6 1.6 0.00 0.00 0.00 33 1020.0
20260501225815 18 251 6.4 9.7 0.00 0.00 0.00 32 1020.1
20260501225313 18 315 6.4 8.0 0.00 0.00 0.00 32 1020.4
20260501224809 19 290 8.0 11.3 0.00 0.00 0.00 32 1020.4
20260501224306 19 299 9.7 11.3 0.00 0.00 0.00 32 1020.6
20260501223802 19 256 1.6 3.2 0.00 0.00 0.00 32 1020.4
20260501223258 18 324 4.8 8.0 0.00 0.00 0.00 34 1020.4
20260501222754 18 294 4.8 8.0 0.00 0.00 0.00 32 1020.6
20260501222252 18 262 8.0 9.7 0.00 0.00 0.00 33 1020.4
20260501221749 18 289 3.2 3.2 0.00 0.00 0.00 32 1020.7
20260501221246 18 234 1.6 3.2 0.00 0.00 0.00 33 1020.5
20260501220743 18 255 1.6 3.2 0.00 0.00 0.00 33 1020.8
20260501220240 18 339 9.7 11.3 0.00 0.00 0.00 33 1020.9
20260501215738 18 298 4.8 4.8 0.00 0.00 0.00 34 1020.9
20260501215232 18 277 6.4 9.7 0.00 0.00 0.00 34 1021.0
20260501214728 18 302 3.2 3.2 0.00 0.00 0.00 33 1021.0
20260501214225 18 316 4.8 4.8 0.00 0.00 0.00 33 1021.0
20260501213721 18 30 11.3 14.5 0.00 0.00 0.00 33 1020.9
20260501213217 18 309 8.0 9.7 0.00 0.00 0.00 33 1021.3
20260501212713 18 260 6.4 8.0 0.00 0.00 0.00 32 1021.3
20260501212210 17 259 1.6 1.6 0.00 0.00 0.00 33 1021.2
20260501211707 17 278 8.0 9.7 0.00 0.00 0.00 33 1021.4
20260501211204 17 287 8.0 9.7 0.00 0.00 0.00 35 1021.2
20260501210701 17 317 12.9 16.1 0.00 0.00 0.00 35 1021.4
20260501210158 17 337 12.9 16.1 0.00 0.00 0.00 34 1021.5
20260501205654 17 158 1.6 1.6 0.00 0.00 0.00 34 1021.4
20260501205151 17 302 9.7 11.3 0.00 0.00 0.00 34 1021.4
20260501204648 18 303 8.0 9.7 0.00 0.00 0.00 35 1021.6
20260501204144 18 248 4.8 4.8 0.00 0.00 0.00 34 1021.7
20260501203640 17 274 3.2 3.2 0.00 0.00 0.00 34 1021.4
20260501203138 17 273 6.4 8.0 0.00 0.00 0.00 36 1021.4
20260501202635 17 318 8.0 11.3 0.00 0.00 0.00 35 1021.6
20260501202132 17 259 6.4 8.0 0.00 0.00 0.00 36 1021.4
20260501201629 17 89 8.0 9.7 0.00 0.00 0.00 35 1021.4
20260501201125 17 348 6.4 8.0 0.00 0.00 0.00 35 1021.3
20260501200622 17 271 3.2 4.8 0.00 0.00 0.00 36 1021.5
20260501200120 17 315 8.0 9.7 0.00 0.00 0.00 37 1021.5
20260501195617 17 342 3.2 8.0 0.00 0.00 0.00 39 1021.6
20260501195113 16 256 3.2 3.2 0.00 0.00 0.00 36 1021.8
20260501194608 16 296 1.6 1.6 0.00 0.00 0.00 39 1021.7
20260501194104 16 328 12.9 16.1 0.00 0.00 0.00 38 1021.7
20260501193602 16 234 8.0 11.3 0.00 0.00 0.00 38 1021.7
20260501193100 17 44 4.8 8.0 0.00 0.00 0.00 37 1021.6
20260501192556 17 215 4.8 9.7 0.00 0.00 0.00 39 1021.6
20260501192054 16 344 8.0 11.3 0.00 0.00 0.00 37 1021.8
20260501191551 16 355 8.0 11.3 0.00 0.00 0.00 40 1021.8
20260501191049 16 338 4.8 4.8 0.00 0.00 0.00 40 1021.8
20260501190544 16 221 3.2 3.2 0.00 0.00 0.00 38 1022.0
20260501190040 16 219 1.6 1.6 0.00 0.00 0.00 39 1022.1
20260501185536 15 320 6.4 8.0 0.00 0.00 0.00 40 1022.2
20260501185032 15 254 9.7 11.3 0.00 0.00 0.00 40 1022.1
20260501184529 16 243 3.2 3.2 0.00 0.00 0.00 40 1022.2
20260501184028 15 107 3.2 4.8 0.00 0.00 0.00 42 1022.2
20260501183526 16 289 6.4 8.0 0.00 0.00 0.00 41 1022.3
20260501183022 15 227 1.6 1.6 0.00 0.00 0.00 40 1022.3
20260501182519 16 309 8.0 11.3 0.00 0.00 0.00 40 1022.4
20260501182016 14 183 6.4 8.0 0.00 0.00 0.00 42 1022.5
20260501181513 15 1 11.3 12.9 0.00 0.00 0.00 41 1022.4
20260501181010 15 157 1.6 1.6 0.00 0.00 0.00 40 1022.3
20260501180508 15 26 9.7 11.3 0.00 0.00 0.00 40 1022.4
20260501180003 14 222 0.0 0.0 0.00 0.00 0.00 40 1022.5
20260501175500 13 243 4.8 8.0 0.00 0.00 0.00 43 1022.5
20260501174956 14 3 8.0 9.7 0.00 0.00 0.00 43 1022.6
20260501174454 15 217 3.2 3.2 0.00 0.00 0.00 42 1022.9
20260501173952 15 354 8.0 9.7 0.00 0.00 0.00 43 1022.6
20260501173449 14 323 8.0 11.3 0.00 0.00 0.00 42 1022.9
20260501172944 14 22 3.2 3.2 0.00 0.00 0.00 44 1022.8
20260501172441 13 135 4.8 4.8 0.00 0.00 0.00 43 1022.8
20260501171936 13 235 3.2 3.2 0.00 0.00 0.00 44 1022.9
20260501171433 13 297 4.8 4.8 0.00 0.00 0.00 43 1023.0
20260501170929 13 355 4.8 8.0 0.00 0.00 0.00 45 1023.0
20260501170426 13 217 0.0 1.6 0.00 0.00 0.00 45 1022.8
20260501165924 12 302 3.2 4.8 0.00 0.00 0.00 48 1022.8
20260501165422 12 260 4.8 8.0 0.00 0.00 0.00 47 1023.1
20260501164919 12 312 8.0 9.7 0.00 0.00 0.00 48 1022.9
20260501164417 12 254 1.6 3.2 0.00 0.00 0.00 50 1023.1
20260501163913 12 301 8.0 9.7 0.00 0.00 0.00 51 1023.1
20260501163409 12 198 1.6 1.6 0.00 0.00 0.00 51 1023.2
20260501162906 12 308 6.4 8.0 0.00 0.00 0.00 54 1023.1
20260501162403 11 273 3.2 3.2 0.00 0.00 0.00 51 1023.3